Weather History for Provo, UT

Change the Weather History Date:

Saturday, August 17, 2013

  Actual Average Record
Temperature  
Mean Temperature 78 °F -  
Max Temperature 93 °F 86 °F 96 °F (1986)
Min Temperature 62 °F 57 °F 51 °F (1987)
Cooling Degree Days 14    
Growing Degree Days 28 (Base 50)    
Moisture  
Dew Point 49 °F    
Average Humidity 47    
Maximum Humidity 72    
Minimum Humidity 22    
Precipitation  
Precipitation 0.00 in - - ()
Sea Level Pressure  
Sea Level Pressure 30.11 in    
Wind  
Wind Speed 5 mph (SE)    
Max Wind Speed 16 mph    
Max Gust Speed -    
Visibility 11 miles    
Events Rain    
Averages and records for this station are not official NWS values.
T = Trace of Precipitation, MM = Missing Value Source: NWS Daily Summary

Daily Weather History Graph

Daily Weather History Graph

Search for Another Location

Airport:

Trip Planner

Search our weather history database for the weather conditions in past years. The results will help you decide how hot, cold, wet, or windy it might be!

Date:

Astronomy

Aug. 17, 2013 Rise Set
Actual Time 6:40 AM MDT 8:20 PM MDT
Civil Twilight 6:11 AM MDT 8:49 PM MDT
Nautical Twilight 5:36 AM MDT 9:24 PM MDT
Astronomical Twilight 4:58 AM MDT 10:01 PM MDT
Moon 5:39 PM MDT (8/17) 2:47 AM MDT (8/17)
Length of Visible Light 14h 38m
Length of Day
13h 40m
Waxing Gibbous, 85% of the Moon is Illuminated
Aug 17
Waxing Gibbous
Aug 20
Full
Aug 28
Last Quarter
Sep 5
New
Sep 12
First Quarter

Hourly Weather History & Observations

Time (MDT) Temp. Heat Index Dew Point Humidity Pressure Visibility Wind Dir Wind Speed Gust Speed Precip Events Conditions
12:15 AM 73.4 °F - 46.4 °F 38% 30.09 in 10.0 mi SSE 8.1 mph - N/A   Clear
12:35 AM 71.6 °F - 48.2 °F 43% 30.09 in 10.0 mi ESE 5.8 mph - N/A   Clear
12:55 AM 71.6 °F - 46.4 °F 41% 30.10 in 10.0 mi Calm Calm - N/A   Clear
1:15 AM 71.6 °F - 44.6 °F 38% 30.09 in 10.0 mi Calm Calm - N/A   Clear
1:55 AM 71.6 °F - 44.6 °F 38% 30.09 in 10.0 mi Calm Calm - N/A   Clear
2:15 AM 69.8 °F - 46.4 °F 43% 30.09 in 10.0 mi Calm Calm - N/A   Clear
2:35 AM 68.0 °F - 48.2 °F 49% 30.09 in 10.0 mi Calm Calm - N/A   Clear
2:55 AM 71.6 °F - 44.6 °F 38% 30.09 in 10.0 mi South 4.6 mph - N/A   Clear
3:15 AM 69.8 °F - 46.4 °F 43% 30.10 in 10.0 mi SE 3.5 mph - N/A   Clear
3:35 AM 69.8 °F - 44.6 °F 40% 30.10 in 10.0 mi SW 4.6 mph - N/A   Clear
3:55 AM 69.8 °F - 46.4 °F 43% 30.10 in 10.0 mi South 6.9 mph - N/A   Clear
4:15 AM 68.0 °F - 46.4 °F 46% 30.10 in 10.0 mi SE 8.1 mph - N/A   Clear
4:55 AM 69.8 °F - 42.8 °F 38% 30.10 in 10.0 mi SE 11.5 mph - N/A   Clear
5:15 AM 69.8 °F - 46.4 °F 43% 30.10 in 10.0 mi SE 11.5 mph - N/A   Clear
5:35 AM 66.2 °F - 46.4 °F 49% 30.11 in 10.0 mi Calm Calm - N/A   Clear
5:55 AM 66.2 °F - 46.4 °F 49% 30.11 in 10.0 mi East 3.5 mph - N/A   Clear
6:15 AM 66.2 °F - 44.6 °F 46% 30.11 in 10.0 mi ESE 4.6 mph - N/A   Clear
6:35 AM 66.2 °F - 44.6 °F 46% 30.12 in 10.0 mi Calm Calm - N/A   Clear
6:47 AM 68.0 °F - 42.8 °F 40% 30.12 in 15.0 mi Calm Calm - N/A   Scattered Clouds
7:48 AM 68.0 °F - 46.4 °F 46% 30.14 in 15.0 mi South 4.6 mph - N/A   Scattered Clouds
8:47 AM 73.4 °F - 46.4 °F 38% 30.14 in 15.0 mi East 5.8 mph - N/A   Partly Cloudy
10:47 AM 84.2 °F - 41.0 °F 22% 30.15 in 15.0 mi Calm Calm - N/A   Scattered Clouds
10:58 AM 80.6 °F - 46.4 °F 30% 30.15 in 15.0 mi ESE 3.5 mph - N/A   Scattered Clouds
12:51 PM 91.4 °F - 48.2 °F 23% 30.09 in 15.0 mi Variable 4.6 mph - N/A   Scattered Clouds
1:47 PM 93.2 °F - 50.0 °F 23% 30.06 in 15.0 mi East 5.8 mph - N/A   Mostly Cloudy
2:47 PM 80.6 °F 81.5 °F 60.8 °F 51% 30.08 in 15.0 mi South 5.8 mph - N/A Rain Light Rain
3:50 PM 71.6 °F - 53.6 °F 53% 30.22 in 8.0 mi NW 11.5 mph - N/A Rain Rain
4:50 PM 69.8 °F - 57.2 °F 64% 30.13 in 15.0 mi NNW 9.2 mph - N/A Rain Light Rain
5:50 PM 73.4 °F - 51.8 °F 47% 30.13 in 15.0 mi NNW 16.1 mph - N/A   Mostly Cloudy
6:50 PM 77.0 °F - 51.8 °F 41% 30.12 in 15.0 mi NNW 9.2 mph - N/A   Mostly Cloudy
7:50 PM 73.4 °F - 50.0 °F 44% 30.10 in 15.0 mi Variable 4.6 mph - N/A   Mostly Cloudy
8:50 PM 73.4 °F - 50.0 °F 44% 30.10 in 15.0 mi Variable 4.6 mph - N/A   Mostly Cloudy
8:55 PM 71.6 °F - 50.0 °F 46% 30.10 in 9.0 mi WNW 6.9 mph - N/A   Clear
9:15 PM 69.8 °F - 53.6 °F 56% 30.10 in 5.0 mi West 3.5 mph - N/A   Clear
9:35 PM 66.2 °F - 53.6 °F 64% 30.09 in 10.0 mi North 9.2 mph - N/A   Clear
9:55 PM 64.4 °F - 51.8 °F 64% 30.11 in 10.0 mi Calm Calm - N/A   Clear
10:15 PM 64.4 °F - 53.6 °F 68% 30.11 in 10.0 mi Calm Calm - N/A   Clear
10:35 PM 68.0 °F - 53.6 °F 60% 30.12 in 10.0 mi Calm Calm - N/A   Clear
10:55 PM 66.2 °F - 55.4 °F 68% 30.13 in 10.0 mi SE 3.5 mph - N/A   Clear
11:15 PM 66.2 °F - 55.4 °F 68% 30.12 in 10.0 mi NE 3.5 mph - N/A   Clear
11:35 PM 66.2 °F - 55.4 °F 68% 30.13 in 10.0 mi NE 4.6 mph - N/A   Clear
11:55 PM 62.6 °F - 53.6 °F 72% 30.13 in 10.0 mi WSW 4.6 mph - N/A   Clear